| time (UTC) | temp C | wind direction | speed KPH | gust KPH | rain 1hr cm | rain 24hr cm | rain mn cm | humidity % | barometer mb |
| 20260831144528 | 23 | 298 | 1.6 | 9.7 | 0.00 | 0.00 | 0.00 | 78 | 1009.4 |
| 20260831143027 | 23 | 309 | 1.6 | 9.7 | 0.00 | 0.00 | 0.00 | 76 | 1009.4 |
| 20260831141526 | 23 | 267 | 1.6 | 9.7 | 0.00 | 0.00 | 0.00 | 76 | 1009.4 |
| 20260831140025 | 23 | 290 | 1.6 | 8.0 | 0.00 | 0.00 | 0.00 | 77 | 1009.4 |
| 20260831134623 | 23 | 293 | 4.8 | 14.5 | 0.00 | 0.00 | 0.00 | 76 | 1009.3 |
| 20260831133022 | 23 | 301 | 1.6 | 11.3 | 0.00 | 0.00 | 0.00 | 76 | 1009.3 |
| 20260831131522 | 23 | 325 | 1.6 | 17.7 | 0.00 | 0.00 | 0.00 | 74 | 1009.3 |
| 20260831130023 | 23 | 308 | 4.8 | 19.3 | 0.00 | 0.00 | 0.00 | 75 | 1009.3 |
| 20260831124520 | 23 | 302 | 4.8 | 17.7 | 0.00 | 0.00 | 0.00 | 75 | 1009.3 |
| 20260831123018 | 23 | 301 | 6.4 | 17.7 | 0.00 | 0.00 | 0.00 | 74 | 1009.4 |
| 20260831121520 | 24 | 319 | 3.2 | 14.5 | 0.00 | 0.00 | 0.00 | 73 | 1009.4 |
| 20260831120018 | 24 | 309 | 3.2 | 17.7 | 0.00 | 0.00 | 0.00 | 71 | 1009.4 |
| 20260831114522 | 23 | 224 | 3.2 | 16.1 | 0.00 | 0.00 | 0.00 | 70 | 1009.4 |
| 20260831113015 | 24 | 233 | 6.4 | 16.1 | 0.00 | 0.00 | 0.00 | 67 | 1009.4 |
| 20260831111513 | 24 | 271 | 3.2 | 11.3 | 0.00 | 0.00 | 0.00 | 69 | 1009.6 |
| 20260831110017 | 23 | 264 | 4.8 | 17.7 | 0.00 | 0.00 | 0.00 | 69 | 1009.5 |
| 20260831104525 | 23 | 299 | 4.8 | 14.5 | 0.00 | 0.00 | 0.00 | 72 | 1009.6 |
| 20260831103009 | 23 | 236 | 4.8 | 17.7 | 0.00 | 0.00 | 0.00 | 71 | 1009.7 |
| 20260831101508 | 24 | 277 | 3.2 | 17.7 | 0.00 | 0.00 | 0.00 | 69 | 1009.8 |
| 20260831100006 | 23 | 209 | 6.4 | 16.1 | 0.00 | 0.00 | 0.00 | 69 | 1009.8 |
| 20260831094507 | 23 | 284 | 3.2 | 19.3 | 0.00 | 0.00 | 0.00 | 65 | 1009.8 |
| 20260831093014 | 24 | 276 | 3.2 | 19.3 | 0.00 | 0.00 | 0.00 | 64 | 1010.0 |
| 20260831091505 | 23 | 280 | 3.2 | 12.9 | 0.00 | 0.00 | 0.00 | 66 | 1010.0 |
| 20260831090003 | 23 | 319 | 6.4 | 14.5 | 0.00 | 0.00 | 0.00 | 64 | 1010.0 |
| 20260831084502 | 24 | 280 | 3.2 | 17.7 | 0.00 | 0.00 | 0.00 | 63 | 1010.0 |
| 20260831083001 | 25 | 316 | 4.8 | 16.1 | 0.00 | 0.00 | 0.00 | 60 | 1010.1 |
| 20260831081601 | 25 | 263 | 1.6 | 12.9 | 0.00 | 0.00 | 0.00 | 55 | 1010.1 |
| 20260831080115 | 24 | 305 | 3.2 | 9.7 | 0.00 | 0.00 | 0.00 | 55 | 1010.1 |
| 20260831074604 | 23 | 314 | 3.2 | 14.5 | 0.00 | 0.00 | 0.00 | 55 | 1010.1 |
| 20260831073054 | 23 | 268 | 3.2 | 9.7 | 0.00 | 0.00 | 0.00 | 54 | 1010.1 |
| 20260831071605 | 23 | 302 | 3.2 | 9.7 | 0.00 | 0.00 | 0.00 | 55 | 1010.0 |
| 20260831070053 | 23 | 307 | 1.6 | 9.7 | 0.00 | 0.00 | 0.00 | 54 | 1010.0 |
| 20260831064551 | 23 | 255 | 0.0 | 6.4 | 0.00 | 0.00 | 0.00 | 54 | 1010.0 |
| 20260831063050 | 23 | 326 | 0.0 | 3.2 | 0.00 | 0.00 | 0.00 | 55 | 1009.9 |
| 20260831061549 | 23 | 304 | 0.0 | 3.2 | 0.00 | 0.00 | 0.00 | 55 | 1009.9 |
| 20260831060059 | 23 | 88 | 0.0 | 0.0 | 0.00 | 0.00 | 0.00 | 56 | 1009.8 |
| 20260831054545 | 23 | 88 | 0.0 | 3.2 | 0.00 | 0.00 | 0.00 | 56 | 1009.8 |
| 20260831053048 | 22 | 90 | 0.0 | 0.0 | 0.00 | 0.00 | 0.00 | 58 | 1009.7 |
| 20260831051542 | 22 | 90 | 0.0 | 0.0 | 0.00 | 0.00 | 0.00 | 63 | 1009.6 |
| 20260831050038 | 21 | 90 | 0.0 | 1.6 | 0.00 | 0.00 | 0.00 | 69 | 1009.5 |
| 20260831044532 | 20 | 90 | 0.0 | 0.0 | 0.00 | 0.00 | 0.00 | 74 | 1009.5 |
| 20260831043035 | 19 | 90 | 0.0 | 1.6 | 0.00 | 0.00 | 0.00 | 76 | 1009.4 |
| 20260831041524 | 18 | 90 | 0.0 | 1.6 | 0.00 | 0.00 | 0.00 | 77 | 1009.3 |
| 20260831040023 | 18 | 90 | 0.0 | 1.6 | 0.00 | 0.00 | 0.00 | 77 | 1009.3 |
| 20260831034522 | 18 | 90 | 0.0 | 1.6 | 0.00 | 0.03 | 0.00 | 75 | 1009.2 |
| 20260831033021 | 18 | 90 | 0.0 | 1.6 | 0.00 | 0.03 | 0.00 | 74 | 1009.2 |
| 20260831031520 | 18 | 89 | 0.0 | 1.6 | 0.00 | 0.03 | 0.00 | 72 | 1009.1 |
| 20260831030019 | 18 | 89 | 0.0 | 3.2 | 0.00 | 0.03 | 0.00 | 69 | 1009.1 |
| 20260831024524 | 18 | 88 | 0.0 | 3.2 | 0.00 | 0.18 | 0.00 | 69 | 1009.1 |
| 20260831023117 | 18 | 92 | 0.0 | 4.8 | 0.00 | 0.18 | 0.00 | 70 | 1009.1 |
| 20260831021517 | 18 | 105 | 0.0 | 3.2 | 0.00 | 0.18 | 0.00 | 70 | 1009.1 |
| 20260831020017 | 18 | 108 | 0.0 | 1.6 | 0.00 | 0.18 | 0.00 | 69 | 1009.2 |
| 20260831014516 | 18 | 108 | 0.0 | 1.6 | 0.00 | 0.18 | 0.00 | 69 | 1009.1 |
| 20260831013034 | 18 | 108 | 0.0 | 1.6 | 0.00 | 0.18 | 0.00 | 69 | 1009.2 |
| 20260831011519 | 18 | 110 | 0.0 | 1.6 | 0.00 | 0.18 | 0.00 | 69 | 1009.1 |
| 20260831010018 | 17 | 111 | 0.0 | 1.6 | 0.00 | 0.18 | 0.00 | 69 | 1009.1 |
| 20260831004514 | 17 | 111 | 0.0 | 1.6 | 0.00 | 0.20 | 0.00 | 70 | 1009.1 |
| 20260831003020 | 17 | 111 | 0.0 | 1.6 | 0.00 | 0.20 | 0.00 | 71 | 1009.0 |
| 20260831001521 | 17 | 112 | 0.0 | 3.2 | 0.00 | 0.20 | 0.00 | 72 | 1009.1 |
| 20260831000012 | 17 | 115 | 0.0 | 1.6 | 0.00 | 0.20 | 0.00 | 74 | 1009.0 |
| 20260830234510 | 17 | 115 | 0.0 | 0.0 | 0.00 | 0.20 | 0.00 | 74 | 1008.9 |
| 20260830233011 | 17 | 115 | 0.0 | 0.0 | 0.00 | 0.20 | 0.00 | 73 | 1008.8 |
| 20260830231508 | 18 | 115 | 0.0 | 0.0 | 0.00 | 0.20 | 0.00 | 72 | 1008.9 |
| 20260830230007 | 18 | 115 | 0.0 | 1.6 | 0.00 | 0.20 | 0.00 | 71 | 1008.9 |
| 20260830224508 | 18 | 115 | 0.0 | 1.6 | 0.00 | 0.20 | 0.00 | 71 | 1008.9 |
| 20260830223003 | 18 | 115 | 0.0 | 0.0 | 0.00 | 0.20 | 0.00 | 70 | 1008.9 |
| 20260830221503 | 18 | 115 | 0.0 | 0.0 | 0.00 | 0.20 | 0.00 | 70 | 1009.0 |
| 20260830220002 | 18 | 115 | 0.0 | 0.0 | 0.00 | 0.20 | 0.00 | 71 | 1009.0 |
| 20260830214601 | 18 | 115 | 0.0 | 0.0 | 0.00 | 0.20 | 0.00 | 71 | 1009.0 |
| 20260830213058 | 18 | 115 | 0.0 | 0.0 | 0.00 | 0.20 | 0.00 | 72 | 1009.2 |
| 20260830211557 | 18 | 115 | 0.0 | 0.0 | 0.00 | 0.20 | 0.00 | 72 | 1009.2 |
| 20260830210109 | 18 | 115 | 0.0 | 1.6 | 0.00 | 0.20 | 0.00 | 75 | 1009.2 |
| 20260830204606 | 18 | 115 | 0.0 | 1.6 | 0.00 | 0.20 | 0.20 | 76 | 1009.2 |
| 20260830203051 | 18 | 115 | 0.0 | 0.0 | 0.00 | 0.20 | 0.20 | 77 | 1009.0 |
| 20260830201555 | 18 | 115 | 0.0 | 0.0 | 0.00 | 0.20 | 0.20 | 78 | 1008.9 |
| 20260830200105 | 18 | 115 | 0.0 | 1.6 | 0.00 | 0.20 | 0.20 | 77 | 1008.9 |
| 20260830194613 | 18 | 115 | 0.0 | 1.6 | 0.00 | 0.20 | 0.20 | 77 | 1008.8 |
| 20260830193048 | 18 | 115 | 0.0 | 3.2 | 0.00 | 0.20 | 0.20 | 77 | 1008.8 |
| 20260830191548 | 18 | 119 | 0.0 | 3.2 | 0.00 | 0.20 | 0.20 | 77 | 1008.7 |
| 20260830190048 | 19 | 125 | 0.0 | 3.2 | 0.00 | 0.20 | 0.20 | 77 | 1008.8 |
| 20260830184547 | 19 | 143 | 0.0 | 1.6 | 0.00 | 0.25 | 0.20 | 77 | 1008.8 |
| 20260830183047 | 19 | 230 | 0.0 | 1.6 | 0.00 | 0.25 | 0.20 | 77 | 1008.9 |
| 20260830181546 | 19 | 230 | 0.0 | 0.0 | 0.00 | 0.25 | 0.20 | 76 | 1008.9 |
| 20260830180045 | 20 | 230 | 0.0 | 1.6 | 0.00 | 0.25 | 0.20 | 75 | 1008.8 |
| 20260830174549 | 20 | 231 | 0.0 | 1.6 | 0.00 | 0.25 | 0.20 | 75 | 1008.8 |
| 20260830173101 | 20 | 232 | 0.0 | 0.0 | 0.00 | 0.25 | 0.20 | 74 | 1008.7 |
| 20260830171543 | 20 | 232 | 0.0 | 0.0 | 0.00 | 0.25 | 0.20 | 73 | 1008.4 |
| 20260830170050 | 20 | 232 | 0.0 | 0.0 | 0.00 | 0.25 | 0.20 | 72 | 1008.4 |
| 20260830164546 | 20 | 232 | 0.0 | 0.0 | 0.00 | 0.25 | 0.20 | 71 | 1008.2 |
| 20260830163049 | 21 | 232 | 0.0 | 1.6 | 0.00 | 0.25 | 0.20 | 70 | 1008.0 |
| 20260830161559 | 21 | 276 | 0.0 | 3.2 | 0.00 | 0.25 | 0.20 | 69 | 1007.9 |
| 20260830160036 | 21 | 309 | 0.0 | 6.4 | 0.00 | 0.25 | 0.20 | 68 | 1007.9 |
| 20260830154536 | 22 | 260 | 0.0 | 6.4 | 0.00 | 0.25 | 0.20 | 65 | 1007.8 |
| 20260830153045 | 22 | 292 | 0.0 | 9.7 | 0.00 | 0.25 | 0.20 | 63 | 1007.9 |
| 20260830151537 | 23 | 255 | 1.6 | 9.7 | 0.00 | 0.25 | 0.20 | 59 | 1008.0 |
| 20260830150039 | 23 | 218 | 4.8 | 12.9 | 0.00 | 0.25 | 0.20 | 58 | 1008.0 |